Time,TemperatureF,DewpointF,PressureIn,WindDirection,WindDirectionDegrees,WindSpeedMPH,WindSpeedGustMPH,Humidity,HourlyPrecipIn,Conditions,Clouds,dailyrainin,SoftwareType,DateUTC
2013-05-11 00:03:00,42.8,39.9,29.59,SW,225,0.0,0.0,89,0.02,,,0.00,WUHU216HW,2013-05-10 23:03:00,
2013-05-11 00:08:00,42.8,39.9,29.59,SW,225,0.0,0.0,89,0.01,,,0.00,WUHU216HW,2013-05-10 23:08:00,
2013-05-11 00:13:00,42.8,39.9,29.59,SW,225,0.0,0.0,89,0.00,,,0.00,WUHU216HW,2013-05-10 23:13:00,
2013-05-11 00:18:00,42.7,39.7,29.59,SW,225,0.0,0.0,89,0.00,,,0.00,WUHU216HW,2013-05-10 23:18:00,
2013-05-11 00:23:00,42.7,39.7,29.59,SW,225,0.0,0.0,89,0.00,,,0.00,WUHU216HW,2013-05-10 23:23:00,
2013-05-11 00:28:00,42.7,39.7,29.59,SW,225,0.0,0.0,89,0.00,,,0.00,WUHU216HW,2013-05-10 23:28:00,
2013-05-11 00:33:00,42.5,39.5,29.59,SW,225,0.0,0.0,89,0.00,,,0.00,WUHU216HW,2013-05-10 23:33:00,
2013-05-11 00:38:00,42.1,39.2,29.58,SW,225,0.0,0.0,89,0.00,,,0.00,WUHU216HW,2013-05-10 23:38:00,
2013-05-11 00:43:00,42.1,39.2,29.58,SW,225,0.0,0.0,89,0.00,,,0.00,WUHU216HW,2013-05-10 23:43:00,
2013-05-11 00:48:00,41.9,39.0,29.58,SW,225,0.0,0.0,89,0.00,,,0.00,WUHU216HW,2013-05-10 23:48:00,
2013-05-11 00:53:00,41.9,39.0,29.58,SW,225,0.0,0.0,89,0.00,,,0.00,WUHU216HW,2013-05-10 23:53:00,
2013-05-11 00:58:00,41.9,39.0,29.58,SW,225,0.2,0.2,89,0.00,,,0.00,WUHU216HW,2013-05-10 23:58:00,
2013-05-11 01:03:00,41.9,39.0,29.58,SW,225,0.0,0.2,89,0.00,,,0.00,WUHU216HW,2013-05-11 00:03:00,
2013-05-11 01:08:00,41.9,39.0,29.58,SW,225,0.0,0.2,89,0.00,,,0.00,WUHU216HW,2013-05-11 00:08:00,
2013-05-11 01:13:00,41.9,39.2,29.58,SW,225,0.0,0.0,90,0.00,,,0.00,WUHU216HW,2013-05-11 00:13:00,
2013-05-11 01:18:00,42.1,39.2,29.58,SW,225,0.4,0.4,89,0.00,,,0.00,WUHU216HW,2013-05-11 00:18:00,
2013-05-11 01:23:00,42.1,39.4,29.57,SW,225,0.0,0.4,90,0.00,,,0.00,WUHU216HW,2013-05-11 00:23:00,
2013-05-11 01:28:00,42.1,39.4,29.57,SW,225,0.0,0.0,90,0.00,,,0.00,WUHU216HW,2013-05-11 00:28:00,
2013-05-11 01:33:00,42.3,39.6,29.57,SW,225,0.0,0.0,90,0.00,,,0.00,WUHU216HW,2013-05-11 00:33:00,
2013-05-11 01:38:00,42.3,39.6,29.57,SW,225,0.0,0.0,90,0.00,,,0.00,WUHU216HW,2013-05-11 00:38:00,
2013-05-11 01:43:00,42.3,39.6,29.56,SW,225,0.0,0.0,90,0.00,,,0.00,WUHU216HW,2013-05-11 00:43:00,
2013-05-11 01:48:00,42.3,39.6,29.56,SW,225,0.0,0.0,90,0.00,,,0.00,WUHU216HW,2013-05-11 00:48:00,
2013-05-11 01:53:00,42.3,39.6,29.56,SW,225,0.0,0.0,90,0.00,,,0.00,WUHU216HW,2013-05-11 00:53:00,
2013-05-11 01:58:00,42.3,39.6,29.56,SW,225,0.0,0.0,90,0.00,,,0.00,WUHU216HW,2013-05-11 00:58:00,
2013-05-11 02:03:00,42.3,39.6,29.56,SW,225,0.0,0.0,90,0.00,,,0.00,WUHU216HW,2013-05-11 01:03:00,
2013-05-11 02:08:00,42.3,39.6,29.55,SW,225,0.4,0.4,90,0.00,,,0.00,WUHU216HW,2013-05-11 01:08:00,
2013-05-11 02:13:00,42.3,39.6,29.55,SW,225,0.0,0.4,90,0.00,,,0.00,WUHU216HW,2013-05-11 01:13:00,
2013-05-11 02:18:00,42.3,39.6,29.55,SW,225,0.0,0.4,90,0.01,,,0.01,WUHU216HW,2013-05-11 01:18:00,
2013-05-11 02:23:00,42.5,39.8,29.55,SW,225,0.0,0.0,90,0.01,,,0.01,WUHU216HW,2013-05-11 01:23:00,
2013-05-11 02:28:00,42.5,39.8,29.55,SW,225,0.0,0.0,90,0.01,,,0.01,WUHU216HW,2013-05-11 01:28:00,
2013-05-11 02:33:00,42.3,39.6,29.55,SW,225,0.4,0.4,90,0.01,,,0.01,WUHU216HW,2013-05-11 01:33:00,
2013-05-11 02:38:00,42.3,39.6,29.54,SW,225,0.0,0.4,90,0.01,,,0.01,WUHU216HW,2013-05-11 01:38:00,
2013-05-11 02:43:00,42.5,39.8,29.54,SW,225,0.0,0.4,90,0.01,,,0.01,WUHU216HW,2013-05-11 01:43:00,
2013-05-11 02:48:00,42.5,39.8,29.54,SW,225,0.0,0.0,90,0.01,,,0.01,WUHU216HW,2013-05-11 01:48:00,
2013-05-11 02:53:00,42.5,39.8,29.54,SW,225,0.2,0.2,90,0.01,,,0.01,WUHU216HW,2013-05-11 01:53:00,
2013-05-11 02:58:00,42.5,39.8,29.54,SW,225,0.0,0.2,90,0.01,,,0.01,WUHU216HW,2013-05-11 01:58:00,
2013-05-11 03:03:00,42.5,39.8,29.54,ESE,113,0.0,0.2,90,0.01,,,0.01,WUHU216HW,2013-05-11 02:03:00,
2013-05-11 03:08:00,42.5,39.8,29.54,ESE,113,0.0,0.0,90,0.01,,,0.01,WUHU216HW,2013-05-11 02:08:00,
2013-05-11 03:13:00,42.5,39.8,29.53,ESE,113,0.2,0.2,90,0.00,,,0.01,WUHU216HW,2013-05-11 02:13:00,
2013-05-11 03:18:00,42.5,39.8,29.53,ESE,113,0.0,0.2,90,0.00,,,0.01,WUHU216HW,2013-05-11 02:18:00,
2013-05-11 03:23:00,42.5,39.8,29.53,ESE,113,0.0,0.2,90,0.00,,,0.01,WUHU216HW,2013-05-11 02:23:00,
2013-05-11 03:28:00,42.7,40.0,29.53,ESE,113,0.0,0.0,90,0.00,,,0.01,WUHU216HW,2013-05-11 02:28:00,
2013-05-11 03:33:00,42.7,40.0,29.52,ESE,113,0.4,0.4,90,0.00,,,0.01,WUHU216HW,2013-05-11 02:33:00,
2013-05-11 03:38:00,42.8,40.1,29.52,ESE,113,0.0,0.4,90,0.00,,,0.01,WUHU216HW,2013-05-11 02:38:00,
2013-05-11 03:43:00,42.8,40.1,29.52,ESE,113,0.4,0.4,90,0.01,,,0.01,WUHU216HW,2013-05-11 02:43:00,
2013-05-11 03:48:00,42.8,40.1,29.52,ESE,113,0.0,0.4,90,0.01,,,0.03,WUHU216HW,2013-05-11 02:48:00,
2013-05-11 03:53:00,42.8,40.1,29.52,SSE,158,0.2,0.4,90,0.01,,,0.03,WUHU216HW,2013-05-11 02:53:00,
2013-05-11 03:58:00,42.8,40.1,29.51,SSE,158,0.2,0.2,90,0.01,,,0.03,WUHU216HW,2013-05-11 02:58:00,
2013-05-11 04:03:00,42.8,40.1,29.51,SSE,158,0.4,0.4,90,0.01,,,0.03,WUHU216HW,2013-05-11 03:03:00,
2013-05-11 04:08:00,43.0,40.3,29.51,SSE,158,0.7,0.7,90,0.01,,,0.03,WUHU216HW,2013-05-11 03:08:00,
2013-05-11 04:13:00,43.0,40.3,29.51,SSE,158,0.4,0.7,90,0.01,,,0.03,WUHU216HW,2013-05-11 03:13:00,
2013-05-11 04:18:00,43.0,40.3,29.50,SSE,158,0.2,0.7,90,0.01,,,0.03,WUHU216HW,2013-05-11 03:18:00,
2013-05-11 04:23:00,43.0,40.3,29.51,West,270,0.4,0.4,90,0.01,,,0.03,WUHU216HW,2013-05-11 03:23:00,
2013-05-11 04:28:00,42.8,40.1,29.50,NNW,338,0.4,0.4,90,0.01,,,0.03,WUHU216HW,2013-05-11 03:28:00,
2013-05-11 04:33:00,42.8,40.1,29.50,NW,315,1.3,1.3,90,0.01,,,0.03,WUHU216HW,2013-05-11 03:33:00,
2013-05-11 04:38:00,42.8,40.1,29.50,ENE,68,1.1,1.3,90,0.02,,,0.03,WUHU216HW,2013-05-11 03:38:00,
2013-05-11 04:43:00,43.0,40.3,29.50,South,180,0.7,1.1,90,0.01,,,0.03,WUHU216HW,2013-05-11 03:43:00,
2013-05-11 04:48:00,43.0,40.3,29.50,SSE,158,1.6,1.6,90,0.01,,,0.03,WUHU216HW,2013-05-11 03:48:00,
2013-05-11 04:53:00,42.8,40.1,29.50,SSE,158,1.1,1.6,90,0.01,,,0.03,WUHU216HW,2013-05-11 03:53:00,
2013-05-11 04:58:00,42.8,40.1,29.49,NNE,23,0.2,1.6,90,0.01,,,0.03,WUHU216HW,2013-05-11 03:58:00,
2013-05-11 05:03:00,42.8,40.1,29.49,North,0,0.4,1.1,90,0.01,,,0.03,WUHU216HW,2013-05-11 04:03:00,
2013-05-11 05:08:00,42.8,40.1,29.49,North,0,0.4,0.4,90,0.01,,,0.03,WUHU216HW,2013-05-11 04:08:00,
2013-05-11 05:13:00,42.8,40.1,29.49,North,0,0.0,0.4,90,0.02,,,0.03,WUHU216HW,2013-05-11 04:13:00,
2013-05-11 05:18:00,42.8,40.1,29.49,ESE,113,1.8,1.8,90,0.02,,,0.05,WUHU216HW,2013-05-11 04:18:00,
2013-05-11 05:23:00,42.8,40.1,29.49,North,0,0.0,1.8,90,0.02,,,0.05,WUHU216HW,2013-05-11 04:23:00,
2013-05-11 05:28:00,42.8,40.1,29.48,SE,135,1.1,1.8,90,0.02,,,0.05,WUHU216HW,2013-05-11 04:28:00,
2013-05-11 05:33:00,42.8,40.1,29.48,South,180,0.9,1.1,90,0.01,,,0.05,WUHU216HW,2013-05-11 04:33:00,
2013-05-11 05:38:00,42.8,40.1,29.48,NW,315,0.0,0.9,90,0.01,,,0.05,WUHU216HW,2013-05-11 04:38:00,
2013-05-11 05:43:00,42.8,40.1,29.48,WNW,293,0.4,0.9,90,0.01,,,0.05,WUHU216HW,2013-05-11 04:43:00,
2013-05-11 05:48:00,42.8,40.1,29.48,East,90,0.4,0.4,90,0.01,,,0.05,WUHU216HW,2013-05-11 04:48:00,
2013-05-11 05:53:00,43.0,40.3,29.48,ENE,68,1.3,1.3,90,0.01,,,0.05,WUHU216HW,2013-05-11 04:53:00,
2013-05-11 05:58:00,43.0,40.3,29.48,East,90,0.2,1.3,90,0.01,,,0.05,WUHU216HW,2013-05-11 04:58:00,
2013-05-11 06:03:00,43.0,40.3,29.48,SSE,158,1.1,1.3,90,0.01,,,0.05,WUHU216HW,2013-05-11 05:03:00,
2013-05-11 06:08:00,43.0,40.3,29.48,SSW,203,0.0,1.1,90,0.02,,,0.05,WUHU216HW,2013-05-11 05:08:00,
2013-05-11 06:13:00,43.0,40.3,29.48,SE,135,0.4,0.4,90,0.01,,,0.05,WUHU216HW,2013-05-11 05:13:00,
2013-05-11 06:18:00,43.0,40.3,29.47,SE,135,0.0,0.4,90,0.01,,,0.05,WUHU216HW,2013-05-11 05:18:00,
2013-05-11 06:23:00,43.0,40.3,29.47,SE,135,0.0,1.1,90,0.01,,,0.05,WUHU216HW,2013-05-11 05:23:00,
2013-05-11 06:28:00,43.0,40.3,29.47,SE,135,1.1,1.1,90,0.01,,,0.05,WUHU216HW,2013-05-11 05:28:00,
2013-05-11 06:33:00,43.2,40.5,29.47,ENE,68,0.7,1.1,90,0.01,,,0.05,WUHU216HW,2013-05-11 05:33:00,
2013-05-11 06:38:00,43.2,40.8,29.47,ESE,113,1.8,1.8,91,0.01,,,0.05,WUHU216HW,2013-05-11 05:38:00,
2013-05-11 06:43:00,43.2,40.8,29.47,SSE,158,0.7,1.8,91,0.01,,,0.05,WUHU216HW,2013-05-11 05:43:00,
2013-05-11 06:48:00,43.2,40.8,29.47,SSE,158,1.3,1.3,91,0.01,,,0.05,WUHU216HW,2013-05-11 05:48:00,
2013-05-11 06:53:00,43.2,40.5,29.47,SSE,158,0.0,1.3,90,0.02,,,0.07,WUHU216HW,2013-05-11 05:53:00,
2013-05-11 06:59:00,43.2,40.8,29.47,South,180,0.0,1.3,91,0.02,,,0.07,WUHU216HW,2013-05-11 05:59:00,
2013-05-11 07:04:00,43.4,40.7,29.47,SSE,158,0.9,0.9,90,0.01,,,0.07,WUHU216HW,2013-05-11 06:04:00,
2013-05-11 07:09:00,43.4,40.7,29.47,SSE,158,0.0,0.9,90,0.01,,,0.07,WUHU216HW,2013-05-11 06:09:00,
2013-05-11 07:14:00,43.4,40.7,29.47,SW,225,1.1,1.1,90,0.01,,,0.07,WUHU216HW,2013-05-11 06:14:00,
2013-05-11 07:19:00,43.4,40.7,29.47,SW,225,0.0,1.1,90,0.01,,,0.07,WUHU216HW,2013-05-11 06:19:00,
2013-05-11 07:24:00,43.4,40.7,29.46,SW,225,0.0,1.1,90,0.02,,,0.07,WUHU216HW,2013-05-11 06:24:00,
2013-05-11 07:29:00,43.6,40.9,29.47,West,270,0.0,0.0,90,0.02,,,0.07,WUHU216HW,2013-05-11 06:29:00,
2013-05-11 07:34:00,43.6,40.9,29.47,ESE,113,0.0,0.0,90,0.03,,,0.09,WUHU216HW,2013-05-11 06:34:00,
2013-05-11 07:39:00,43.6,41.1,29.47,ESE,113,0.4,0.4,91,0.03,,,0.09,WUHU216HW,2013-05-11 06:39:00,
2013-05-11 07:44:00,43.6,41.1,29.46,SE,135,0.0,0.4,91,0.03,,,0.09,WUHU216HW,2013-05-11 06:44:00,
2013-05-11 07:49:00,43.6,41.1,29.46,SE,135,0.2,0.4,91,0.03,,,0.10,WUHU216HW,2013-05-11 06:49:00,
2013-05-11 07:54:00,43.9,41.5,29.46,SSE,158,0.9,0.9,91,0.03,,,0.10,WUHU216HW,2013-05-11 06:54:00,
2013-05-11 07:59:00,43.9,41.5,29.46,NNE,23,0.9,0.9,91,0.03,,,0.10,WUHU216HW,2013-05-11 06:59:00,
2013-05-11 08:04:00,44.1,41.7,29.46,ENE,68,0.0,0.9,91,0.04,,,0.10,WUHU216HW,2013-05-11 07:04:00,
2013-05-11 08:09:00,44.3,41.9,29.46,ENE,68,0.2,0.9,91,0.04,,,0.10,WUHU216HW,2013-05-11 07:09:00,
2013-05-11 08:14:00,44.3,41.9,29.46,North,0,0.2,0.4,91,0.04,,,0.10,WUHU216HW,2013-05-11 07:14:00,
2013-05-11 08:19:00,44.5,42.0,29.46,North,0,1.1,1.1,91,0.05,,,0.10,WUHU216HW,2013-05-11 07:19:00,
2013-05-11 08:24:00,44.6,42.2,29.46,North,0,0.0,1.1,91,0.04,,,0.12,WUHU216HW,2013-05-11 07:24:00,
2013-05-11 08:29:00,44.6,42.2,29.46,North,0,0.0,1.1,91,0.03,,,0.12,WUHU216HW,2013-05-11 07:29:00,
2013-05-11 08:34:00,44.8,42.4,29.46,NNW,338,2.5,2.5,91,0.04,,,0.12,WUHU216HW,2013-05-11 07:34:00,
2013-05-11 08:39:00,45.0,42.6,29.46,East,90,2.5,2.5,91,0.04,,,0.12,WUHU216HW,2013-05-11 07:39:00,
2013-05-11 08:44:00,45.0,42.6,29.46,NW,315,1.1,2.5,91,0.04,,,0.12,WUHU216HW,2013-05-11 07:44:00,
2013-05-11 08:49:00,45.2,42.8,29.46,WSW,248,0.4,2.5,91,0.03,,,0.12,WUHU216HW,2013-05-11 07:49:00,
2013-05-11 08:54:00,45.7,43.6,29.46,SSE,158,0.4,1.1,92,0.03,,,0.12,WUHU216HW,2013-05-11 07:54:00,
2013-05-11 08:59:00,45.7,43.6,29.46,North,0,1.1,1.1,92,0.03,,,0.12,WUHU216HW,2013-05-11 07:59:00,
2013-05-11 09:04:00,45.7,43.6,29.46,SE,135,1.1,1.1,92,0.02,,,0.12,WUHU216HW,2013-05-11 08:04:00,
2013-05-11 09:09:00,46.1,44.2,29.46,East,90,0.4,1.1,93,0.03,,,0.14,WUHU216HW,2013-05-11 08:09:00,
2013-05-11 09:14:00,46.4,44.6,29.46,NE,45,0.2,1.1,93,0.04,,,0.14,WUHU216HW,2013-05-11 08:14:00,
2013-05-11 09:19:00,46.6,44.7,29.46,NE,45,0.4,0.4,93,0.03,,,0.14,WUHU216HW,2013-05-11 08:19:00,
2013-05-11 09:24:00,46.8,44.9,29.47,SE,135,0.4,0.4,93,0.03,,,0.14,WUHU216HW,2013-05-11 08:24:00,
2013-05-11 09:29:00,47.0,45.1,29.47,ESE,113,0.2,0.4,93,0.03,,,0.14,WUHU216HW,2013-05-11 08:29:00,
2013-05-11 09:34:00,47.2,45.3,29.46,North,0,0.4,0.4,93,0.02,,,0.14,WUHU216HW,2013-05-11 08:34:00,
2013-05-11 09:39:00,47.5,45.6,29.46,SSE,158,2.2,2.2,93,0.03,,,0.16,WUHU216HW,2013-05-11 08:39:00,
2013-05-11 09:44:00,47.5,45.6,29.46,SSE,158,0.2,2.2,93,0.03,,,0.16,WUHU216HW,2013-05-11 08:44:00,
2013-05-11 09:49:00,47.9,46.0,29.46,SSE,158,0.7,2.2,93,0.03,,,0.16,WUHU216HW,2013-05-11 08:49:00,
2013-05-11 09:54:00,47.7,45.5,29.46,NE,45,0.4,0.7,92,0.04,,,0.16,WUHU216HW,2013-05-11 08:54:00,
2013-05-11 09:59:00,47.7,45.5,29.46,ENE,68,0.4,0.4,92,0.04,,,0.17,WUHU216HW,2013-05-11 08:59:00,
2013-05-11 10:04:00,47.9,45.7,29.46,ENE,68,0.2,0.4,92,0.04,,,0.18,WUHU216HW,2013-05-11 09:04:00,
2013-05-11 10:09:00,48.1,45.9,29.46,SSE,158,1.3,1.3,92,0.05,,,0.18,WUHU216HW,2013-05-11 09:09:00,
2013-05-11 10:14:00,48.1,45.9,29.46,SE,135,0.9,1.3,92,0.04,,,0.19,WUHU216HW,2013-05-11 09:14:00,
2013-05-11 10:19:00,48.1,45.9,29.46,WNW,293,1.3,1.3,92,0.04,,,0.19,WUHU216HW,2013-05-11 09:19:00,
2013-05-11 10:24:00,47.9,45.7,29.46,East,90,0.7,1.3,92,0.05,,,0.20,WUHU216HW,2013-05-11 09:24:00,
2013-05-11 10:29:00,47.9,45.7,29.46,South,180,1.6,1.6,92,0.07,,,0.22,WUHU216HW,2013-05-11 09:29:00,
2013-05-11 10:34:00,47.9,45.7,29.47,NW,315,1.8,1.8,92,0.07,,,0.23,WUHU216HW,2013-05-11 09:34:00,
2013-05-11 10:39:00,47.9,45.7,29.47,NW,315,2.7,2.7,92,0.08,,,0.24,WUHU216HW,2013-05-11 09:39:00,
2013-05-11 10:44:00,47.5,45.4,29.47,NW,315,2.7,3.8,92,0.08,,,0.24,WUHU216HW,2013-05-11 09:44:00,
2013-05-11 10:49:00,47.3,45.2,29.47,SE,135,0.9,3.8,92,0.08,,,0.24,WUHU216HW,2013-05-11 09:49:00,
2013-05-11 10:54:00,47.3,45.2,29.47,NW,315,1.1,2.7,92,0.07,,,0.24,WUHU216HW,2013-05-11 09:54:00,
2013-05-11 10:59:00,48.1,45.9,29.48,ENE,68,2.2,2.2,92,0.07,,,0.24,WUHU216HW,2013-05-11 09:59:00,
2013-05-11 11:04:00,48.6,46.2,29.48,SE,135,2.2,2.2,91,0.06,,,0.24,WUHU216HW,2013-05-11 10:04:00,
2013-05-11 11:09:00,48.6,46.2,29.48,SSE,158,1.8,2.2,91,0.05,,,0.24,WUHU216HW,2013-05-11 10:09:00,
2013-05-11 11:14:00,48.4,45.7,29.48,NNW,338,1.6,2.2,90,0.05,,,0.24,WUHU216HW,2013-05-11 10:14:00,
2013-05-11 11:19:00,48.2,45.5,29.48,NNW,338,2.2,5.4,90,0.05,,,0.24,WUHU216HW,2013-05-11 10:19:00,
2013-05-11 11:24:00,48.2,45.5,29.48,SSW,203,1.8,5.4,90,0.02,,,0.24,WUHU216HW,2013-05-11 10:24:00,
2013-05-11 11:29:00,48.4,45.7,29.48,NNE,23,1.3,2.2,90,0.01,,,0.24,WUHU216HW,2013-05-11 10:29:00,
2013-05-11 11:34:00,48.6,45.9,29.49,WNW,293,2.9,2.9,90,0.00,,,0.24,WUHU216HW,2013-05-11 10:34:00,
2013-05-11 11:39:00,48.6,45.5,29.49,NNW,338,4.5,4.5,89,0.00,,,0.24,WUHU216HW,2013-05-11 10:39:00,
2013-05-11 11:44:00,48.6,45.5,29.49,NE,45,1.8,4.5,89,0.00,,,0.24,WUHU216HW,2013-05-11 10:44:00,
2013-05-11 11:49:00,48.6,45.5,29.49,SSE,158,2.5,4.5,89,0.00,,,0.24,WUHU216HW,2013-05-11 10:49:00,
2013-05-11 11:54:00,48.6,45.2,29.49,NNW,338,2.7,2.7,88,0.00,,,0.24,WUHU216HW,2013-05-11 10:54:00,
2013-05-11 11:59:00,48.2,44.9,29.49,NE,45,2.9,3.6,88,0.00,,,0.24,WUHU216HW,2013-05-11 10:59:00,
2013-05-11 12:04:00,48.2,44.9,29.49,SSE,158,2.2,3.6,88,0.00,,,0.24,WUHU216HW,2013-05-11 11:04:00,
2013-05-11 12:09:00,48.2,44.9,29.50,South,180,4.3,4.3,88,0.00,,,0.24,WUHU216HW,2013-05-11 11:09:00,
2013-05-11 12:14:00,48.2,44.9,29.50,SSW,203,1.3,4.3,88,0.00,,,0.24,WUHU216HW,2013-05-11 11:14:00,
2013-05-11 12:19:00,48.2,44.6,29.50,SSE,158,2.0,3.4,87,0.00,,,0.24,WUHU216HW,2013-05-11 11:19:00,
2013-05-11 12:24:00,48.6,44.9,29.50,NW,315,1.3,2.0,87,0.00,,,0.24,WUHU216HW,2013-05-11 11:24:00,
2013-05-11 12:29:00,48.8,45.1,29.50,SE,135,3.4,3.4,87,0.00,,,0.24,WUHU216HW,2013-05-11 11:29:00,
2013-05-11 12:34:00,49.0,44.9,29.50,NW,315,3.1,3.4,86,0.00,,,0.24,WUHU216HW,2013-05-11 11:34:00,
2013-05-11 12:39:00,49.1,45.1,29.50,WNW,293,3.4,3.4,86,0.00,,,0.24,WUHU216HW,2013-05-11 11:39:00,
2013-05-11 12:44:00,49.3,45.3,29.50,South,180,1.6,3.4,86,0.00,,,0.24,WUHU216HW,2013-05-11 11:44:00,
2013-05-11 12:49:00,49.7,45.6,29.50,NW,315,4.0,4.0,86,0.00,,,0.24,WUHU216HW,2013-05-11 11:49:00,
2013-05-11 12:54:00,49.7,45.3,29.51,NNE,23,1.8,4.0,85,0.00,,,0.24,WUHU216HW,2013-05-11 11:54:00,
2013-05-11 12:59:00,49.9,45.2,29.51,SE,135,1.6,4.0,84,0.00,,,0.24,WUHU216HW,2013-05-11 11:59:00,
2013-05-11 13:04:00,49.7,45.0,29.51,ESE,113,2.7,2.7,84,0.00,,,0.24,WUHU216HW,2013-05-11 12:04:00,
2013-05-11 13:09:00,49.5,44.5,29.51,ENE,68,4.0,4.0,83,0.00,,,0.24,WUHU216HW,2013-05-11 12:09:00,
2013-05-11 13:14:00,49.7,45.3,29.51,NW,315,2.5,4.0,85,0.00,,,0.24,WUHU216HW,2013-05-11 12:14:00,
2013-05-11 13:19:00,50.0,45.4,29.52,ESE,113,3.4,4.0,84,0.00,,,0.24,WUHU216HW,2013-05-11 12:19:00,
2013-05-11 13:24:00,50.4,45.4,29.52,SE,135,2.7,3.4,83,0.00,,,0.24,WUHU216HW,2013-05-11 12:24:00,
2013-05-11 13:29:00,50.4,45.1,29.52,ENE,68,4.5,4.5,82,0.00,,,0.24,WUHU216HW,2013-05-11 12:29:00,
2013-05-11 13:34:00,50.4,45.1,29.52,South,180,2.9,4.5,82,0.00,,,0.24,WUHU216HW,2013-05-11 12:34:00,
2013-05-11 13:39:00,50.0,44.7,29.53,NNW,338,3.4,4.5,82,0.00,,,0.24,WUHU216HW,2013-05-11 12:39:00,
2013-05-11 13:44:00,50.2,44.9,29.53,North,0,2.5,3.4,82,0.00,,,0.24,WUHU216HW,2013-05-11 12:44:00,
2013-05-11 13:49:00,50.2,44.9,29.53,SW,225,2.5,2.5,82,0.00,,,0.24,WUHU216HW,2013-05-11 12:49:00,
2013-05-11 13:54:00,50.4,44.7,29.53,SSE,158,3.8,3.8,81,0.00,,,0.24,WUHU216HW,2013-05-11 12:54:00,
2013-05-11 13:59:00,50.4,44.7,29.53,NNE,23,1.1,3.8,81,0.00,,,0.24,WUHU216HW,2013-05-11 12:59:00,
2013-05-11 14:04:00,50.0,44.1,29.54,NE,45,2.5,3.6,80,0.00,,,0.24,WUHU216HW,2013-05-11 13:04:00,
2013-05-11 14:09:00,49.7,43.7,29.54,South,180,2.7,2.7,80,0.00,,,0.24,WUHU216HW,2013-05-11 13:09:00,
2013-05-11 14:14:00,49.5,43.6,29.53,SE,135,2.5,2.7,80,0.00,,,0.24,WUHU216HW,2013-05-11 13:14:00,
2013-05-11 14:19:00,49.5,43.6,29.53,NNW,338,1.6,2.7,80,0.00,,,0.24,WUHU216HW,2013-05-11 13:19:00,
2013-05-11 14:24:00,49.5,43.8,29.53,NNW,338,5.1,5.1,81,0.00,,,0.24,WUHU216HW,2013-05-11 13:24:00,
2013-05-11 14:29:00,49.5,43.8,29.54,SSE,158,3.4,5.1,81,0.00,,,0.24,WUHU216HW,2013-05-11 13:29:00,
2013-05-11 14:34:00,49.5,44.2,29.54,North,0,2.7,5.1,82,0.00,,,0.24,WUHU216HW,2013-05-11 13:34:00,
2013-05-11 14:39:00,49.3,44.0,29.54,WNW,293,4.0,4.0,82,0.00,,,0.24,WUHU216HW,2013-05-11 13:39:00,
2013-05-11 14:44:00,49.1,43.8,29.54,East,90,1.3,4.0,82,0.00,,,0.24,WUHU216HW,2013-05-11 13:44:00,
2013-05-11 14:49:00,49.1,43.8,29.54,NW,315,1.6,4.0,82,0.00,,,0.24,WUHU216HW,2013-05-11 13:49:00,
2013-05-11 14:54:00,49.0,44.0,29.54,SE,135,1.8,1.8,83,0.00,,,0.24,WUHU216HW,2013-05-11 13:54:00,
2013-05-11 14:59:00,48.8,43.8,29.54,NNW,338,1.6,1.8,83,0.00,,,0.24,WUHU216HW,2013-05-11 13:59:00,
2013-05-11 15:04:00,48.8,43.8,29.55,ENE,68,0.7,1.8,83,0.00,,,0.24,WUHU216HW,2013-05-11 14:04:00,
2013-05-11 15:09:00,48.6,43.7,29.55,North,0,1.8,1.8,83,0.00,,,0.24,WUHU216HW,2013-05-11 14:09:00,
2013-05-11 15:14:00,48.6,43.7,29.55,NNW,338,2.7,2.7,83,0.00,,,0.24,WUHU216HW,2013-05-11 14:14:00,
2013-05-11 15:19:00,48.8,43.8,29.55,NNW,338,2.0,3.1,83,0.00,,,0.24,WUHU216HW,2013-05-11 14:19:00,
2013-05-11 15:24:00,48.8,43.8,29.55,NW,315,3.6,3.6,83,0.00,,,0.24,WUHU216HW,2013-05-11 14:24:00,
2013-05-11 15:29:00,48.8,44.1,29.55,SE,135,2.5,3.6,84,0.00,,,0.24,WUHU216HW,2013-05-11 14:29:00,
2013-05-11 15:35:00,49.1,44.1,29.55,NNW,338,2.5,3.6,83,0.00,,,0.24,WUHU216HW,2013-05-11 14:35:00,
2013-05-11 15:40:00,49.3,44.0,29.55,ENE,68,2.5,2.5,82,0.00,,,0.24,WUHU216HW,2013-05-11 14:40:00,
2013-05-11 15:45:00,49.3,43.7,29.55,NNW,338,2.9,2.9,81,0.00,,,0.24,WUHU216HW,2013-05-11 14:45:00,
2013-05-11 15:50:00,49.3,43.7,29.55,NNW,338,2.9,2.9,81,0.00,,,0.24,WUHU216HW,2013-05-11 14:50:00,
2013-05-11 15:55:00,49.3,43.4,29.55,ENE,68,2.2,3.4,80,0.00,,,0.24,WUHU216HW,2013-05-11 14:55:00,
2013-05-11 16:00:00,49.3,43.4,29.55,NW,315,2.2,3.4,80,0.00,,,0.24,WUHU216HW,2013-05-11 15:00:00,
2013-05-11 16:05:00,49.1,43.2,29.56,NNE,23,1.1,2.2,80,0.00,,,0.24,WUHU216HW,2013-05-11 15:05:00,
2013-05-11 16:10:00,49.0,43.4,29.56,NNE,23,0.4,2.2,81,0.00,,,0.24,WUHU216HW,2013-05-11 15:10:00,
2013-05-11 16:15:00,49.1,43.5,29.56,SE,135,1.8,1.8,81,0.00,,,0.24,WUHU216HW,2013-05-11 15:15:00,
2013-05-11 16:20:00,49.1,43.5,29.56,SSW,203,5.1,5.1,81,0.00,,,0.24,WUHU216HW,2013-05-11 15:20:00,
2013-05-11 16:25:00,49.1,43.5,29.56,South,180,3.1,5.1,81,0.00,,,0.24,WUHU216HW,2013-05-11 15:25:00,
2013-05-11 16:30:00,49.3,43.4,29.56,NW,315,3.8,5.1,80,0.00,,,0.24,WUHU216HW,2013-05-11 15:30:00,
2013-05-11 16:35:00,49.3,43.4,29.56,SE,135,1.8,3.8,80,0.00,,,0.24,WUHU216HW,2013-05-11 15:35:00,
2013-05-11 16:40:00,49.5,43.8,29.56,East,90,2.5,3.8,81,0.00,,,0.24,WUHU216HW,2013-05-11 15:40:00,
2013-05-11 16:45:00,49.9,43.6,29.57,East,90,1.3,2.7,79,0.00,,,0.24,WUHU216HW,2013-05-11 15:45:00,
2013-05-11 16:50:00,49.7,43.4,29.57,NNW,338,1.8,2.7,79,0.00,,,0.24,WUHU216HW,2013-05-11 15:50:00,
2013-05-11 16:55:00,49.5,43.6,29.57,North,0,2.5,2.5,80,0.00,,,0.24,WUHU216HW,2013-05-11 15:55:00,
2013-05-11 17:00:00,49.7,43.7,29.57,WNW,293,2.5,3.4,80,0.00,,,0.24,WUHU216HW,2013-05-11 16:00:00,
2013-05-11 17:05:00,49.7,43.4,29.57,South,180,1.1,3.4,79,0.00,,,0.24,WUHU216HW,2013-05-11 16:05:00,
2013-05-11 17:10:00,49.7,43.4,29.57,SE,135,1.8,2.5,79,0.00,,,0.24,WUHU216HW,2013-05-11 16:10:00,
2013-05-11 17:15:00,49.3,43.4,29.57,NNW,338,1.6,2.9,80,0.00,,,0.24,WUHU216HW,2013-05-11 16:15:00,
2013-05-11 17:20:00,49.1,43.2,29.58,ENE,68,1.8,2.9,80,0.00,,,0.24,WUHU216HW,2013-05-11 16:20:00,
2013-05-11 17:25:00,48.8,42.8,29.58,South,180,2.2,2.2,80,0.00,,,0.24,WUHU216HW,2013-05-11 16:25:00,
2013-05-11 17:30:00,48.8,43.2,29.58,NE,45,0.9,2.2,81,0.00,,,0.24,WUHU216HW,2013-05-11 16:30:00,
2013-05-11 17:35:00,48.6,43.3,29.58,South,180,1.1,2.2,82,0.00,,,0.24,WUHU216HW,2013-05-11 16:35:00,
2013-05-11 17:40:00,48.6,43.3,29.58,SE,135,0.7,1.1,82,0.00,,,0.24,WUHU216HW,2013-05-11 16:40:00,
2013-05-11 17:45:00,48.2,42.7,29.58,WSW,248,1.8,1.8,81,0.00,,,0.24,WUHU216HW,2013-05-11 16:45:00,
2013-05-11 17:50:00,48.1,42.8,29.58,NE,45,0.9,1.8,82,0.00,,,0.24,WUHU216HW,2013-05-11 16:50:00,
2013-05-11 17:55:00,47.9,42.9,29.58,East,90,1.6,1.8,83,0.00,,,0.24,WUHU216HW,2013-05-11 16:55:00,
2013-05-11 18:00:00,47.9,42.9,29.58,North,0,1.6,1.6,83,0.00,,,0.24,WUHU216HW,2013-05-11 17:00:00,
2013-05-11 18:05:00,47.9,43.3,29.59,North,0,1.3,1.6,84,0.00,,,0.24,WUHU216HW,2013-05-11 17:05:00,
2013-05-11 18:10:00,47.9,43.6,29.59,NNW,338,2.7,2.7,85,0.00,,,0.24,WUHU216HW,2013-05-11 17:10:00,
2013-05-11 18:15:00,47.7,43.4,29.59,NE,45,0.7,2.7,85,0.00,,,0.24,WUHU216HW,2013-05-11 17:15:00,
2013-05-11 18:20:00,47.7,43.4,29.59,North,0,0.7,2.7,85,0.00,,,0.24,WUHU216HW,2013-05-11 17:20:00,
2013-05-11 18:25:00,47.5,43.6,29.59,NNW,338,1.8,1.8,86,0.00,,,0.24,WUHU216HW,2013-05-11 17:25:00,
2013-05-11 18:30:00,47.3,43.7,29.59,WNW,293,1.1,1.8,87,0.00,,,0.24,WUHU216HW,2013-05-11 17:30:00,
2013-05-11 18:35:00,47.5,43.8,29.60,SSE,158,0.9,1.8,87,0.00,,,0.24,WUHU216HW,2013-05-11 17:35:00,
2013-05-11 18:40:00,47.5,43.8,29.60,NW,315,2.2,2.2,87,0.00,,,0.24,WUHU216HW,2013-05-11 17:40:00,
2013-05-11 18:45:00,47.3,43.7,29.60,WNW,293,1.1,2.2,87,0.00,,,0.24,WUHU216HW,2013-05-11 17:45:00,
2013-05-11 18:50:00,47.5,43.8,29.60,West,270,0.4,2.2,87,0.00,,,0.24,WUHU216HW,2013-05-11 17:50:00,
2013-05-11 18:55:00,47.5,43.8,29.60,West,270,1.3,1.3,87,0.00,,,0.24,WUHU216HW,2013-05-11 17:55:00,
2013-05-11 19:00:00,47.7,44.0,29.60,NW,315,2.2,2.2,87,0.00,,,0.24,WUHU216HW,2013-05-11 18:00:00,
2013-05-11 19:05:00,47.9,44.2,29.60,East,90,1.1,2.2,87,0.00,,,0.24,WUHU216HW,2013-05-11 18:05:00,
2013-05-11 19:10:00,48.4,44.7,29.60,NE,45,1.1,1.1,87,0.00,,,0.24,WUHU216HW,2013-05-11 18:10:00,
2013-05-11 19:15:00,48.6,44.9,29.61,North,0,1.1,1.1,87,0.00,,,0.24,WUHU216HW,2013-05-11 18:15:00,
2013-05-11 19:20:00,48.8,44.7,29.61,SSE,158,0.4,1.1,86,0.00,,,0.24,WUHU216HW,2013-05-11 18:20:00,
2013-05-11 19:25:00,48.8,44.5,29.61,NE,45,1.1,1.1,85,0.00,,,0.24,WUHU216HW,2013-05-11 18:25:00,
2013-05-11 19:30:00,48.8,44.5,29.62,SSE,158,0.0,1.1,85,0.00,,,0.24,WUHU216HW,2013-05-11 18:30:00,
2013-05-11 19:35:00,48.6,44.3,29.62,SSE,158,0.7,1.1,85,0.00,,,0.24,WUHU216HW,2013-05-11 18:35:00,
2013-05-11 19:40:00,48.6,44.3,29.62,WNW,293,1.3,1.3,85,0.00,,,0.24,WUHU216HW,2013-05-11 18:40:00,
2013-05-11 19:45:00,48.4,44.1,29.62,South,180,1.1,1.3,85,0.00,,,0.24,WUHU216HW,2013-05-11 18:45:00,
2013-05-11 19:50:00,48.6,44.3,29.62,WSW,248,1.3,1.3,85,0.00,,,0.24,WUHU216HW,2013-05-11 18:50:00,
2013-05-11 19:55:00,48.6,44.3,29.63,WSW,248,0.2,1.3,85,0.00,,,0.24,WUHU216HW,2013-05-11 18:55:00,
2013-05-11 20:00:00,48.6,44.3,29.63,WNW,293,0.2,1.3,85,0.00,,,0.24,WUHU216HW,2013-05-11 19:00:00,
2013-05-11 20:05:00,48.4,44.1,29.63,WNW,293,2.5,2.5,85,0.00,,,0.24,WUHU216HW,2013-05-11 19:05:00,
2013-05-11 20:10:00,48.6,44.3,29.63,WNW,293,0.4,2.5,85,0.00,,,0.24,WUHU216HW,2013-05-11 19:10:00,
2013-05-11 20:15:00,48.4,44.1,29.63,WNW,293,0.4,2.5,85,0.00,,,0.24,WUHU216HW,2013-05-11 19:15:00,
2013-05-11 20:20:00,48.4,44.1,29.64,NW,315,0.4,0.4,85,0.00,,,0.24,WUHU216HW,2013-05-11 19:20:00,
2013-05-11 20:25:00,48.4,44.1,29.64,WNW,293,0.7,0.7,85,0.00,,,0.24,WUHU216HW,2013-05-11 19:25:00,
2013-05-11 20:30:00,48.6,43.9,29.65,SE,135,1.3,1.3,84,0.00,,,0.24,WUHU216HW,2013-05-11 19:30:00,
2013-05-11 20:35:00,48.6,43.9,29.65,SSE,158,0.4,1.3,84,0.00,,,0.24,WUHU216HW,2013-05-11 19:35:00,
2013-05-11 20:40:00,48.6,43.9,29.65,NW,315,0.4,1.3,84,0.00,,,0.24,WUHU216HW,2013-05-11 19:40:00,
2013-05-11 20:45:00,48.4,43.7,29.65,NNW,338,1.6,1.6,84,0.00,,,0.24,WUHU216HW,2013-05-11 19:45:00,
2013-05-11 20:50:00,48.4,43.5,29.66,NNW,338,2.0,2.0,83,0.00,,,0.24,WUHU216HW,2013-05-11 19:50:00,
2013-05-11 20:55:00,48.6,43.7,29.67,NW,315,2.5,2.5,83,0.00,,,0.24,WUHU216HW,2013-05-11 19:55:00,
2013-05-11 21:00:00,48.4,43.5,29.67,NW,315,2.9,2.9,83,0.00,,,0.24,WUHU216HW,2013-05-11 20:00:00,
2013-05-11 21:05:00,48.6,43.9,29.67,SSE,158,1.3,2.9,84,0.00,,,0.24,WUHU216HW,2013-05-11 20:05:00,
2013-05-11 21:10:00,48.4,43.5,29.66,WNW,293,0.4,1.3,83,0.00,,,0.24,WUHU216HW,2013-05-11 20:10:00,
2013-05-11 21:15:00,48.4,43.7,29.66,West,270,0.9,1.3,84,0.00,,,0.24,WUHU216HW,2013-05-11 20:15:00,
2013-05-11 21:20:00,48.2,43.3,29.66,NNW,338,1.8,1.8,83,0.00,,,0.24,WUHU216HW,2013-05-11 20:20:00,
2013-05-11 21:25:00,48.4,43.7,29.66,West,270,0.7,1.8,84,0.00,,,0.24,WUHU216HW,2013-05-11 20:25:00,
2013-05-11 21:30:00,48.2,43.3,29.67,West,270,4.9,4.9,83,0.00,,,0.24,WUHU216HW,2013-05-11 20:30:00,
2013-05-11 21:35:00,48.2,42.9,29.67,WNW,293,1.8,4.9,82,0.00,,,0.24,WUHU216HW,2013-05-11 20:35:00,
2013-05-11 21:40:00,48.2,42.9,29.67,NW,315,1.8,4.9,82,0.00,,,0.24,WUHU216HW,2013-05-11 20:40:00,
2013-05-11 21:45:00,47.9,42.9,29.67,WNW,293,0.7,1.8,83,0.00,,,0.24,WUHU216HW,2013-05-11 20:45:00,
2013-05-11 21:50:00,47.9,42.9,29.67,WNW,293,0.7,1.6,83,0.00,,,0.24,WUHU216HW,2013-05-11 20:50:00,
2013-05-11 21:55:00,47.7,42.8,29.68,West,270,0.4,0.7,83,0.00,,,0.24,WUHU216HW,2013-05-11 20:55:00,
2013-05-11 22:00:00,47.7,42.8,29.69,West,270,0.2,0.7,83,0.00,,,0.24,WUHU216HW,2013-05-11 21:00:00,
2013-05-11 22:05:00,47.3,42.5,29.70,WNW,293,0.0,0.4,83,0.00,,,0.24,WUHU216HW,2013-05-11 21:05:00,
2013-05-11 22:10:00,47.2,42.3,29.70,WNW,293,1.1,1.1,83,0.00,,,0.24,WUHU216HW,2013-05-11 21:10:00,
2013-05-11 22:15:00,47.0,42.1,29.70,WNW,293,0.2,1.1,83,0.00,,,0.24,WUHU216HW,2013-05-11 21:15:00,
2013-05-11 22:20:00,46.8,42.2,29.71,NNW,338,0.0,1.1,84,0.00,,,0.24,WUHU216HW,2013-05-11 21:20:00,
2013-05-11 22:25:00,46.8,42.2,29.71,WSW,248,0.9,0.9,84,0.00,,,0.24,WUHU216HW,2013-05-11 21:25:00,
2013-05-11 22:30:00,46.6,42.0,29.71,WSW,248,0.0,0.9,84,0.00,,,0.24,WUHU216HW,2013-05-11 21:30:00,
2013-05-11 22:35:00,46.4,42.0,29.71,WSW,248,0.0,0.9,84,0.00,,,0.24,WUHU216HW,2013-05-11 21:35:00,
2013-05-11 22:40:00,46.3,41.8,29.71,West,270,0.4,0.4,84,0.00,,,0.24,WUHU216HW,2013-05-11 21:40:00,
2013-05-11 22:45:00,46.1,41.6,29.72,WNW,293,1.8,1.8,84,0.00,,,0.24,WUHU216HW,2013-05-11 21:45:00,
2013-05-11 22:50:00,45.9,41.7,29.72,WNW,293,1.8,1.8,85,0.00,,,0.24,WUHU216HW,2013-05-11 21:50:00,
2013-05-11 22:55:00,45.9,41.7,29.72,West,270,2.5,2.5,85,0.00,,,0.24,WUHU216HW,2013-05-11 21:55:00,
2013-05-11 23:00:00,45.9,41.7,29.72,WNW,293,2.9,2.9,85,0.00,,,0.24,WUHU216HW,2013-05-11 22:00:00,
2013-05-11 23:05:00,46.1,41.9,29.72,WNW,293,1.8,2.9,85,0.00,,,0.24,WUHU216HW,2013-05-11 22:05:00,
2013-05-11 23:10:00,46.1,42.1,29.73,NW,315,2.5,2.9,86,0.00,,,0.24,WUHU216HW,2013-05-11 22:10:00,
2013-05-11 23:15:00,46.3,42.0,29.73,WNW,293,2.2,2.5,85,0.00,,,0.24,WUHU216HW,2013-05-11 22:15:00,
2013-05-11 23:20:00,46.4,42.2,29.73,WNW,293,1.8,2.2,85,0.00,,,0.24,WUHU216HW,2013-05-11 22:20:00,
2013-05-11 23:25:00,46.4,42.2,29.73,WNW,293,0.4,2.2,85,0.00,,,0.24,WUHU216HW,2013-05-11 22:25:00,
2013-05-11 23:30:00,46.4,42.2,29.73,WNW,293,0.2,1.8,85,0.00,,,0.24,WUHU216HW,2013-05-11 22:30:00,
2013-05-11 23:35:00,46.4,42.2,29.73,WNW,293,1.1,1.1,85,0.00,,,0.24,WUHU216HW,2013-05-11 22:35:00,
2013-05-11 23:40:00,46.4,42.2,29.74,WNW,293,0.4,1.1,85,0.00,,,0.24,WUHU216HW,2013-05-11 22:40:00,
2013-05-11 23:45:00,46.3,42.0,29.74,WSW,248,0.7,1.1,85,0.00,,,0.24,WUHU216HW,2013-05-11 22:45:00,
2013-05-11 23:50:00,46.3,42.0,29.74,WSW,248,0.0,0.7,85,0.00,,,0.24,WUHU216HW,2013-05-11 22:50:00,
2013-05-11 23:55:00,46.1,41.9,29.74,WSW,248,0.0,0.7,85,0.00,,,0.24,WUHU216HW,2013-05-11 22:55:00,